When you browse on this site, cookies collect data to enhance your experience and personalize the content and advertising you see.
Visit our Privacy Policy to learn more. By continuing to use the site, you agree to this use of cookies and data.
  • In Hungary
  • List of Countries
  • For 7 days
  • Water Temperature
  • Satellite Maps
  • Weather Map
  • News
  • Weather Widgets
  • user-avatar
    Login

    Hourly Weather Kawardha

    Today, 20 March, Wednesday

    Time Temperature Precipitation Wind Pressure Humidity
    00:00 +26°C° 0 mm 2 mps 729 mmHg 31%
    01:00 +26°C° 0 mm 2 mps 728 mmHg 30%
    02:00 +25°C° 0 mm 2 mps 728 mmHg 29%
    03:00 +25°C° 0 mm 1 mps 728 mmHg 29%
    04:00 +24°C° 0 mm 1 mps 728 mmHg 29%
    05:00 +24°C° 0 mm 1 mps 728 mmHg 29%
    06:00 +26°C° 0 mm 1 mps 729 mmHg 27%
    07:00 +28°C° 0 mm 2 mps 729 mmHg 25%
    08:00 +30°C° 0 mm 2 mps 730 mmHg 22%
    09:00 +32°C° 0 mm 2 mps 730 mmHg 23%
    10:00 +34°C° 0 mm 2 mps 730 mmHg 23%
    11:00 +36°C° 0 mm 3 mps 730 mmHg 24%
    12:00 +36°C° 0 mm 2 mps 729 mmHg 24%
    13:00 +36°C° 0 mm 2 mps 729 mmHg 25%
    14:00 +35°C° 0 mm 1 mps 728 mmHg 25%
    15:00 +35°C° 0 mm 1 mps 728 mmHg 26%
    16:00 +34°C° 0 mm 1 mps 728 mmHg 27%
    17:00 +34°C° 0 mm 1 mps 728 mmHg 29%
    18:00 +33°C° 0.1 mm 1 mps 728 mmHg 30%
    19:00 +32°C° 0.1 mm 2 mps 728 mmHg 32%
    20:00 +31°C° 0.1 mm 2 mps 729 mmHg 34%
    21:00 +29°C° 0.7 mm 2 mps 729 mmHg 40%
    22:00 +28°C° 0.7 mm 2 mps 729 mmHg 46%
    23:00 +27°C° 0.7 mm 1 mps 729 mmHg 52%

    Tomorrow, 21 March, Thursday

    Time Temperature Precipitation Wind Pressure Humidity
    00:00 +26°C° 0 mm 1 mps 729 mmHg 52%
    01:00 +26°C° 0 mm 1 mps 728 mmHg 53%
    02:00 +24°C° 0 mm 0 mps 728 mmHg 53%
    03:00 +23°C° 0 mm 0 mps 728 mmHg 54%
    04:00 +25°C° 0 mm 1 mps 728 mmHg 54%
    05:00 +25°C° 0 mm 1 mps 728 mmHg 54%
    06:00 +27°C° 0 mm 1 mps 729 mmHg 50%
    07:00 +29°C° 0 mm 2 mps 730 mmHg 45%
    08:00 +30°C° 0 mm 2 mps 730 mmHg 41%
    09:00 +33°C° 0 mm 3 mps 731 mmHg 36%
    10:00 +36°C° 0 mm 3 mps 731 mmHg 32%
    11:00 +38°C° 0 mm 4 mps 731 mmHg 28%
    12:00 +37°C° 0 mm 4 mps 730 mmHg 29%
    13:00 +37°C° 0 mm 4 mps 729 mmHg 30%
    14:00 +36°C° 0 mm 5 mps 728 mmHg 31%
    15:00 +36°C° 0 mm 4 mps 728 mmHg 30%
    16:00 +36°C° 0 mm 3 mps 728 mmHg 29%
    17:00 +36°C° 0 mm 3 mps 728 mmHg 28%
    18:00 +35°C° 0.2 mm 2 mps 728 mmHg 33%
    19:00 +32°C° 0.2 mm 2 mps 729 mmHg 37%
    20:00 +31°C° 0.2 mm 2 mps 729 mmHg 42%
    21:00 +30°C° 0.3 mm 2 mps 729 mmHg 46%
    22:00 +29°C° 0.3 mm 1 mps 729 mmHg 51%
    23:00 +28°C° 0.3 mm 1 mps 729 mmHg 55%

    Day after tomorrow, 22 March, Friday

    Time Temperature Precipitation Wind Pressure Humidity
    00:00 +28°C° 0 mm 1 mps 728 mmHg 55%
    01:00 +26°C° 0 mm 0 mps 728 mmHg 56%
    02:00 +25°C° 0 mm 0 mps 728 mmHg 56%
    03:00 +27°C° 0.6 mm 1 mps 728 mmHg 58%
    04:00 +27°C° 0.6 mm 1 mps 728 mmHg 60%
    05:00 +26°C° 0.6 mm 2 mps 728 mmHg 63%
    06:00 +28°C° 0 mm 2 mps 729 mmHg 56%
    07:00 +30°C° 0 mm 2 mps 730 mmHg 50%
    08:00 +31°C° 0 mm 2 mps 731 mmHg 44%
    09:00 +34°C° 0 mm 2 mps 731 mmHg 38%
    10:00 +36°C° 0 mm 3 mps 731 mmHg 32%
    11:00 +38°C° 0 mm 4 mps 731 mmHg 26%
    12:00 +38°C° 0 mm 3 mps 730 mmHg 25%
    13:00 +38°C° 0 mm 3 mps 729 mmHg 23%
    14:00 +38°C° 0 mm 2 mps 728 mmHg 21%
    15:00 +38°C° 0 mm 2 mps 728 mmHg 21%
    16:00 +36°C° 0 mm 1 mps 728 mmHg 22%
    17:00 +36°C° 0 mm 1 mps 727 mmHg 22%
    18:00 +35°C° 0 mm 2 mps 728 mmHg 22%
    19:00 +34°C° 0 mm 2 mps 728 mmHg 21%
    20:00 +31°C° 0 mm 2 mps 729 mmHg 21%
    21:00 +30°C° 0 mm 2 mps 729 mmHg 21%
    22:00 +29°C° 0 mm 2 mps 729 mmHg 21%
    23:00 +28°C° 0 mm 2 mps 729 mmHg 21%

    23 March, Saturday

    Time Temperature Precipitation Wind Pressure Humidity
    00:00 +28°C° 0 mm 2 mps 729 mmHg 22%
    01:00 +27°C° 0 mm 2 mps 728 mmHg 22%
    02:00 +27°C° 0 mm 2 mps 728 mmHg 22%
    03:00 +26°C° 0 mm 2 mps 728 mmHg 22%
    04:00 +26°C° 0 mm 2 mps 728 mmHg 23%
    05:00 +25°C° 0 mm 2 mps 728 mmHg 23%
    06:00 +27°C° 0 mm 2 mps 729 mmHg 21%
    07:00 +29°C° 0 mm 2 mps 730 mmHg 20%
    08:00 +31°C° 0 mm 2 mps 731 mmHg 18%
    09:00 +34°C° 0 mm 2 mps 731 mmHg 16%
    10:00 +37°C° 0 mm 2 mps 731 mmHg 14%
    11:00 +39°C° 0 mm 1 mps 731 mmHg 12%
    12:00 +39°C° 0 mm 2 mps 730 mmHg 11%
    13:00 +40°C° 0 mm 2 mps 729 mmHg 11%
    14:00 +40°C° 0 mm 2 mps 728 mmHg 10%
    15:00 +40°C° 0 mm 2 mps 728 mmHg 10%
    16:00 +39°C° 0 mm 3 mps 728 mmHg 10%
    17:00 +38°C° 0 mm 3 mps 728 mmHg 11%
    18:00 +36°C° 0 mm 3 mps 728 mmHg 13%
    19:00 +34°C° 0 mm 3 mps 729 mmHg 14%
    20:00 +31°C° 0 mm 3 mps 729 mmHg 16%
    21:00 +30°C° 0 mm 3 mps 729 mmHg 17%
    22:00 +29°C° 0 mm 2 mps 729 mmHg 18%
    23:00 +29°C° 0 mm 2 mps 729 mmHg 18%

    24 March, Sunday

    Time Temperature Precipitation Wind Pressure Humidity
    00:00 +28°C° 0 mm 2 mps 728 mmHg 18%
    01:00 +27°C° 0 mm 2 mps 728 mmHg 18%
    02:00 +27°C° 0 mm 2 mps 728 mmHg 18%
    03:00 +26°C° 0 mm 2 mps 728 mmHg 18%
    04:00 +26°C° 0 mm 2 mps 728 mmHg 19%
    05:00 +25°C° 0 mm 2 mps 728 mmHg 19%
    06:00 +27°C° 0 mm 2 mps 729 mmHg 17%
    07:00 +29°C° 0 mm 2 mps 730 mmHg 16%
    08:00 +31°C° 0 mm 2 mps 731 mmHg 14%
    09:00 +33°C° 0 mm 1 mps 731 mmHg 13%
    10:00 +36°C° 0 mm 1 mps 731 mmHg 11%
    11:00 +39°C° 0 mm 1 mps 730 mmHg 10%
    12:00 +40°C° 0 mm 2 mps 730 mmHg 9%
    13:00 +40°C° 0 mm 2 mps 729 mmHg 9%
    14:00 +41°C° 0 mm 2 mps 728 mmHg 8%
    15:00 +40°C° 0 mm 2 mps 728 mmHg 9%
    16:00 +39°C° 0 mm 3 mps 728 mmHg 9%
    17:00 +39°C° 0 mm 3 mps 728 mmHg 10%
    18:00 +37°C° 0 mm 3 mps 728 mmHg 12%
    19:00 +35°C° 0 mm 3 mps 729 mmHg 14%
    20:00 +31°C° 0 mm 2 mps 729 mmHg 16%
    21:00 +31°C° 0 mm 2 mps 729 mmHg 17%
    22:00 +30°C° 0 mm 2 mps 729 mmHg 19%
    23:00 +29°C° 0 mm 1 mps 729 mmHg 20%

    25 March, Monday

    Time Temperature Precipitation Wind Pressure Humidity
    00:00 +28°C° 0 mm 1 mps 728 mmHg 20%
    01:00 +28°C° 0 mm 1 mps 728 mmHg 21%
    02:00 +28°C° 0 mm 2 mps 728 mmHg 21%
    03:00 +27°C° 0 mm 1 mps 728 mmHg 22%
    04:00 +27°C° 0 mm 1 mps 728 mmHg 22%
    05:00 +26°C° 0 mm 1 mps 728 mmHg 23%
    06:00 +28°C° 0 mm 1 mps 729 mmHg 21%
    07:00 +30°C° 0 mm 2 mps 730 mmHg 19%
    08:00 +32°C° 0 mm 2 mps 731 mmHg 17%
    09:00 +35°C° 0 mm 2 mps 731 mmHg 15%
    10:00 +37°C° 0 mm 2 mps 731 mmHg 14%
    11:00 +39°C° 0 mm 3 mps 731 mmHg 12%
    12:00 +40°C° 0 mm 2 mps 730 mmHg 11%
    13:00 +41°C° 0 mm 2 mps 729 mmHg 10%
    14:00 +42°C° 0 mm 1 mps 729 mmHg 9%
    15:00 +41°C° 0 mm 1 mps 728 mmHg 9%
    16:00 +41°C° 0 mm 2 mps 728 mmHg 10%
    17:00 +40°C° 0 mm 2 mps 728 mmHg 10%
    18:00 +37°C° 0 mm 1 mps 729 mmHg 12%
    19:00 +35°C° 0 mm 1 mps 729 mmHg 13%
    20:00 +33°C° 0 mm 1 mps 730 mmHg 15%
    21:00 +32°C° 0 mm 1 mps 729 mmHg 16%
    22:00 +32°C° 0 mm 1 mps 729 mmHg 16%
    23:00 +31°C° 0 mm 2 mps 729 mmHg 17%
    Show more